This demonstration page uses our WeatherBlox Daily Observations layout. Learn more.

Left ArrowRight Arrow

Hourly Observations for February 13, 2021

Temp ( °F °C ) Dew Point ( °F °C ) Humidity (%) Winds ( mph kmh ) Pressure ( in mb ) Visibility ( mi km ) Precip ( " mm )
12:15 am 00:15 Cloudy -2 -19.1 -8 -22.1 77 77 E 6 9 30.66 1038 10 16 N/A
12:35 am 00:35 Cloudy -2 -19.1 -8 -22.2 77 77 ENE 6 9 30.67 1038 10 16 N/A
12:55 am 00:55 Cloudy -2 -19.1 -8 -22.2 77 77 ENE 6 9 30.67 1038 10 16 N/A
1:15 am 01:15 Cloudy -3 -19.2 -8 -22.3 77 77 ENE 6 9 30.67 1038 10 16 N/A
1:35 am 01:35 Cloudy -3 -19.2 -8 -22.2 77 77 NE 3 6 30.67 1038 10 16 N/A
1:55 am 01:55 Cloudy -3 -19.2 -8 -22.2 77 77 NNE 5 7 30.67 1038 10 16 N/A
2:15 am 02:15 Cloudy -3 -19.2 -8 -22.1 78 78 NNE 3 6 30.67 1038 10 16 N/A
2:35 am 02:35 Cloudy -2 -19 -8 -22 77 77 NNE 6 9 30.66 1038 7 11 N/A
2:55 am 02:55 Cloudy with Light Snow -2 -19 -8 -22 77 77 N 6 9 30.66 1038 3 5 N/A
3:15 am 03:15 Cloudy with Light Snow -2 -19.1 -7 -21.9 79 79 NNE 3 6 30.66 1038 2 2 N/A
3:35 am 03:35 Cloudy with Snow -2 -19 -7 -21.7 79 79 NNE 5 7 30.65 1038 1 2 N/A
3:55 am 03:55 Cloudy with Light Snow -3 -19.2 -8 -22 79 79 NNE 6 9 30.66 1038 1 2 N/A
4:15 am 04:15 Cloudy with Light Snow -3 -19.2 -7 -21.9 79 79 NNE 5 7 30.66 1038 2 3 N/A
4:35 am 04:35 Cloudy with Light Snow -2 -19.1 -7 -21.8 79 79 NNE 5 7 30.66 1038 2 3 N/A
4:55 am 04:55 Cloudy with Light Snow -2 -19.1 -7 -21.7 80 80 NNE 3 6 30.67 1038 1 2 N/A
5:15 am 05:15 Cloudy with Light Snow -2 -19.1 -7 -21.7 80 80 NNE 5 7 30.67 1038 3 4 N/A
5:35 am 05:35 Cloudy with Light Snow -2 -19 -7 -21.6 80 80 N 7 11 30.66 1038 3 5 N/A
5:55 am 05:55 Cloudy with Light Snow -2 -19 -7 -21.6 80 80 N 7 11 30.66 1038 2 3 N/A
6:15 am 06:15 Cloudy with Light Snow -3 -19.2 -8 -22 79 79 NNE 6 9 30.67 1038 2 3 N/A
6:35 am 06:35 Partly Cloudy -4 -20.2 -9 -22.9 79 79 NNE 6 9 30.67 1039 10 16 N/A
6:55 am 06:55 Clear -7 -21.6 -12 -24.4 78 78 NNE 5 7 30.69 1039 10 16 N/A
7:15 am 07:15 Partly Cloudy -8 -22.1 -12 -24.7 80 80 NNE 5 7 30.70 1040 10 16 N/A
7:35 am 07:35 Mostly Cloudy -10 -23.5 -15 -26.1 79 79 NNE 6 9 30.72 1040 10 16 0.01 0.25
7:55 am 07:55 Cloudy -9 -22.5 -13 -25.1 79 79 NNE 5 7 30.70 1040 10 16 0.01 0.25
8:15 am 08:15 Partly Cloudy -9 -22.6 -13 -25.2 79 79 NNE 5 7 30.71 1040 10 16 N/A
8:35 am 08:35 Sunny -8 -22.3 -13 -24.8 80 80 NNE 5 7 30.70 1040 10 16 N/A
8:55 am 08:55 Sunny -7 -21.8 -12 -24.3 80 80 N 3 6 30.71 1040 10 16 N/A
9:15 am 09:15 Partly Cloudy -7 -21.5 -11 -24 80 80 N N/A 30.70 1040 10 16 N/A
9:35 am 09:35 Mostly Cloudy -3 -19.7 -8 -22.1 81 81 N N/A 30.69 1039 7 11 N/A
9:55 am 09:55 Cloudy -2 -18.9 -7 -21.7 79 79 N N/A 30.68 1039 10 16 N/A
10:15 am 10:15 Cloudy -1 -18.5 -7 -21.8 75 75 N 3 6 30.68 1039 10 16 N/A
10:35 am 10:35 Cloudy -1 -18.1 -7 -21.6 74 74 N 5 7 30.67 1039 10 16 N/A
10:55 am 10:55 Cloudy -1 -18.1 -7 -21.7 74 74 N 5 7 30.67 1039 10 16 N/A
11:15 am 11:15 Cloudy N/A -7 -21.5 74 74 NNE 3 6 30.67 1039 10 16 N/A
11:35 am 11:35 Cloudy N/A -7 -21.6 74 74 NNE 5 7 30.67 1039 10 16 N/A
11:55 am 11:55 Cloudy N/A -7 -21.5 72 72 NNE 3 6 30.67 1039 10 16 N/A
12:15 pm 12:15 Cloudy 1 -17.5 -7 -21.6 71 71 N N/A 30.67 1039 10 16 N/A
12:35 pm 12:35 Cloudy 1 -17.2 -7 -21.6 69 69 NNE 3 6 30.64 1038 10 16 N/A
12:55 pm 12:55 Cloudy 1 -17.2 -7 -21.6 69 69 N N/A 30.63 1037 10 16 N/A
1:15 pm 13:15 Cloudy 1 -17 -7 -21.5 68 68 N N/A 30.63 1037 10 16 N/A
1:35 pm 13:35 Cloudy 1 -17 -7 -21.9 66 66 N N/A 30.62 1037 10 16 N/A
1:55 pm 13:55 Cloudy 2 -16.9 -7 -21.8 66 66 N N/A 30.61 1037 10 16 N/A
2:15 pm 14:15 Cloudy 1 -17 -7 -21.9 66 66 N 3 6 30.60 1036 10 16 N/A
2:35 pm 14:35 Cloudy 2 -16.8 -7 -21.9 65 65 N 3 6 30.60 1036 10 16 N/A
2:55 pm 14:55 Cloudy 2 -16.7 -7 -21.7 65 65 N N/A 30.59 1036 10 16 N/A
3:15 pm 15:15 Mostly Cloudy 2 -16.7 -7 -21.6 66 66 N N/A 30.59 1036 10 16 N/A
3:35 pm 15:35 Mostly Cloudy 2 -16.8 -7 -21.5 67 67 N 3 6 30.59 1036 10 16 N/A
3:55 pm 15:55 Cloudy 2 -16.5 -6 -21.2 67 67 NNE 3 6 30.59 1036 10 16 N/A
4:15 pm 16:15 Cloudy 2 -16.5 -6 -21.3 67 67 NNE 5 7 30.60 1036 10 16 N/A
4:35 pm 16:35 Mostly Cloudy 2 -16.5 -6 -21 68 68 NE 5 7 30.60 1036 10 16 N/A
4:55 pm 16:55 Cloudy 2 -16.4 -5 -20.7 70 70 NNE 6 9 30.59 1036 10 16 N/A
5:15 pm 17:15 Cloudy 3 -16.3 -5 -20.6 70 70 NNE 9 15 30.58 1036 10 16 N/A
5:35 pm 17:35 Cloudy 3 -16.3 -5 -20.7 69 69 NNE 12 19 30.59 1036 10 16 N/A
5:55 pm 17:55 Cloudy 2 -16.5 -5 -20.7 70 70 NNE 13 20 30.58 1035 10 16 N/A
6:15 pm 18:15 Cloudy 2 -16.5 -6 -21 68 68 NNE 12 19 30.60 1036 10 16 N/A
6:35 pm 18:35 Cloudy 2 -16.6 -6 -21 69 69 NNE 12 19 30.60 1036 10 16 N/A
6:55 pm 18:55 Cloudy 2 -16.7 -6 -21 70 70 NE 10 17 30.60 1036 10 16 N/A
7:15 pm 19:15 Cloudy 2 -16.9 -7 -21.4 68 68 NE 9 15 30.62 1037 10 16 N/A
7:35 pm 19:35 Cloudy with Light Snow 1 -17 -6 -21 71 71 NNE 8 13 30.62 1037 7 11 N/A
7:55 pm 19:55 Cloudy with Light Snow 1 -17 -5 -20.8 73 73 NNE 8 13 30.63 1037 4 6 N/A
8:15 pm 20:15 Cloudy with Light Snow 1 -17 -5 -20.3 76 76 NE 7 11 30.64 1038 3 5 N/A
8:35 pm 20:35 Cloudy with Light Snow 1 -17 -4 -20.2 76 76 NNE 7 11 30.65 1038 3 4 N/A
8:55 pm 20:55 Cloudy with Light Snow 1 -17 -4 -19.8 79 79 NNE 7 11 30.65 1038 1 2 N/A
9:15 pm 21:15 Cloudy with Light Snow 1 -17 -3 -19.6 80 80 NNE 9 15 30.66 1038 1 2 N/A
9:35 pm 21:35 Cloudy with Light Snow 1 -17.2 -3 -19.7 81 81 NNE 12 19 30.67 1039 1 2 N/A
9:55 pm 21:55 Cloudy with Light Snow 1 -17.5 -4 -20 81 81 NNE 12 19 30.68 1039 1 2 N/A
10:15 pm 22:15 Cloudy with Light Snow 1 -17.5 -4 -20 81 81 NNE 12 19 30.69 1039 1 2 N/A
10:35 pm 22:35 Cloudy with Light Snow 1 -17.5 -4 -20 81 81 NNE 9 15 30.70 1040 2 2 N/A
10:55 pm 22:55 Cloudy with Light Snow N/A -5 -20.3 80 80 NNE 13 20 30.69 1039 2 2 N/A
11:15 pm 23:15 Cloudy with Light Snow N/A -4 -20.2 81 81 NNE 13 20 30.69 1039 2 3 N/A
11:35 pm 23:35 Cloudy with Light Snow N/A -5 -20.6 80 80 NNE 14 22 30.69 1039 2 3 0.01 0.25
11:55 pm 23:55 Cloudy with Light Snow N/A -5 -20.7 80 80 NNE 10 17 30.70 1040 2 3 0.01 0.25

Powered by AerisWeather